"Pseudo-MPEC" for P112hFv

Created 2020 Jul 10 16:07:07 UT using Find_Orb

Click here for an explanation of pseudo-MPECs

 
 Astrometry: 
     P112hFv  C2020 06 29Pu49Vl`12DUNEFAstrometryVCwC/DU/9XK$FqGZaQ/OjeA*QSO,F51
     P112hFv  C2020 06 29[t,lq)i['EjA#oy#g8NQGWvgyredacted;Z,/$h]1Z/nIjvH4q)pF51
     P112hFv  C2020 06 29)pJAxUCV+d/f\;O`)3K=v@AfCT3I]]-.-(,%HiK4KgcfJP7BLW=lF51
     P112hFv  C2020 07 01s`clickF`d*wq8^hereSx!YoIH@]NaF:fwQ.#/%p\epwfor)tlYTF51
     P112hFv  C2020 07 01EZ3:)54@cP@#q/$ur)E.H;+RpZRm`aexplanation'MUdcj*@$^6F51

Station data:
(F51) Pan-STARRS 1, Haleakala  (N20.707235 W156.255910)  US/Hawaii.
   Observers N. Primak, A. Schultz, S. Watters, J. Thiel, T. Goggia. Measurer
   PS1 Science Consortium. 1.8-m Ritchey-Chrétien + CCD.

Orbital elements:  P112hFv
   Perihelion 2020 Jul 9.294910 +/- 51.4 TT =  7:04:40 (JD 2459039.794910)
Epoch 2020 Jul  1.0 TT = JDT 2459031.5   Earth MOID: 0.4545   Ma: 0.0807
M 357.64145159 +/- 24               (J2000 ecliptic)          AutoNEOCP
n   0.28433682 +/- 0.226            Peri.   40.86579 +/- 56
a   2.29041394 +/- 1.22             Node   259.23705 +/- 14
e   0.3587355 +/- 0.233             Incl.    2.86011 +/- 1.1
P   3.47                   H 21.6   G  0.15   U 11.7  SR
q 1.46876097 +/- 0.347    Q 3.11206691 +/- 30.7
From 5 observations 2020 June 29-July 1; mean residual 0".13
Residuals in arcseconds: 
200629 F51  .04-  .05+    200629 F51  .04+  .07+    200701 F51  .15+  .23-    
200629 F51  .00   .12-    200701 F51  .15-  .23+    

Ephemerides (geocentric):
Date (UTC) HH   RA              Dec         delta   r     elong  mag " sig PA
---- -- -- --  -------------   -----------  ------ ------ -----  --- ---- ---
2020 07 10 16  21 44 14.218   -07 57 40.95  .52495 1.4688 142.6 22.2  955 141
2020 07 10 17  21 44 15.432   -07 57 18.72  .52482 1.4688 142.7 22.2  964 141
2020 07 10 18  21 44 16.642   -07 56 56.52  .52469 1.4688 142.7 22.2  972 141
2020 07 10 19  21 44 17.847   -07 56 34.34  .52456 1.4688 142.7 22.2  980 141
2020 07 10 20  21 44 19.048   -07 56 12.19  .52442 1.4688 142.8 22.2  988 141
2020 07 10 21  21 44 20.245   -07 55 50.06  .52429 1.4688 142.8 22.2  997 141
2020 07 10 22  21 44 21.438   -07 55 27.95  .52416 1.4688 142.8 22.2 1005 141
2020 07 10 23  21 44 22.626   -07 55 05.87  .52403 1.4688 142.9 22.2 1013 141
2020 07 11 00  21 44 23.811   -07 54 43.81  .52390 1.4688 142.9 22.2 1022 141
2020 07 11 01  21 44 24.991   -07 54 21.78  .52377 1.4688 142.9 22.2 1030 141
2020 07 11 02  21 44 26.166   -07 53 59.77  .52364 1.4688 143.0 22.2 1039 141
2020 07 11 03  21 44 27.338   -07 53 37.78  .52351 1.4688 143.0 22.2 1047 141
2020 07 11 04  21 44 28.505   -07 53 15.82  .52338 1.4688 143.0 22.2 1056 141
2020 07 11 05  21 44 29.668   -07 52 53.88  .52325 1.4689 143.0 22.2 1065 141
2020 07 11 06  21 44 30.827   -07 52 31.96  .52312 1.4689 143.1 22.2 1073 141
2020 07 11 07  21 44 31.981   -07 52 10.08  .52300 1.4689 143.1 22.2 1082 141
2020 07 11 08  21 44 33.131   -07 51 48.21  .52287 1.4689 143.1 22.2 1091 141
2020 07 11 09  21 44 34.277   -07 51 26.37  .52274 1.4689 143.2 22.2 1100 141
2020 07 11 10  21 44 35.419   -07 51 04.55  .52261 1.4689 143.2 22.2 1108 141
2020 07 11 11  21 44 36.557   -07 50 42.76  .52248 1.4689 143.2 22.2 1117 141
2020 07 11 12  21 44 37.690   -07 50 20.99  .52235 1.4689 143.3 22.2 1126 141
2020 07 11 13  21 44 38.819   -07 49 59.25  .52223 1.4689 143.3 22.2 1135 141
2020 07 11 14  21 44 39.944   -07 49 37.53  .52210 1.4689 143.3 22.2 1144 141
2020 07 11 15  21 44 41.065   -07 49 15.84  .52197 1.4689 143.4 22.2 1153 141
2020 07 11 16  21 44 42.181   -07 48 54.17  .52184 1.4689 143.4 22.2 1162 141
2020 07 11 17  21 44 43.293   -07 48 32.52  .52172 1.4689 143.4 22.2 1171 141
2020 07 11 18  21 44 44.401   -07 48 10.90  .52159 1.4689 143.5 22.2 1180 141
2020 07 11 19  21 44 45.505   -07 47 49.30  .52146 1.4689 143.5 22.2 1189 141
2020 07 11 20  21 44 46.604   -07 47 27.73  .52134 1.4689 143.5 22.2 1199 141
2020 07 11 21  21 44 47.699   -07 47 06.18  .52121 1.4689 143.6 22.2 1208 141
2020 07 11 22  21 44 48.790   -07 46 44.66  .52108 1.4689 143.6 22.2 1217 141
2020 07 11 23  21 44 49.877   -07 46 23.16  .52096 1.4689 143.6 22.2 1226 141
2020 07 12 00  21 44 50.959   -07 46 01.69  .52083 1.4689 143.7 22.2 1236 141
2020 07 12 01  21 44 52.037   -07 45 40.24  .52071 1.4689 143.7 22.2 1245 140
2020 07 12 02  21 44 53.111   -07 45 18.82  .52058 1.4690 143.7 22.2 1254 140
2020 07 12 03  21 44 54.181   -07 44 57.42  .52046 1.4690 143.8 22.2 1264 140
2020 07 12 04  21 44 55.246   -07 44 36.05  .52033 1.4690 143.8 22.2 1273 140
2020 07 12 05  21 44 56.308   -07 44 14.70  .52021 1.4690 143.8 22.2 1283 140
2020 07 12 06  21 44 57.365   -07 43 53.38  .52008 1.4690 143.9 22.2 1293 140
2020 07 12 07  21 44 58.417   -07 43 32.08  .51996 1.4690 143.9 22.2 1302 140
2020 07 12 08  21 44 59.466   -07 43 10.81  .51983 1.4690 143.9 22.2 1312 140
2020 07 12 09  21 45 00.510   -07 42 49.56  .51971 1.4690 144.0 22.2 1321 140
2020 07 12 10  21 45 01.550   -07 42 28.33  .51959 1.4690 144.0 22.2 1331 140
2020 07 12 11  21 45 02.586   -07 42 07.13  .51946 1.4690 144.0 22.1 1341 140
2020 07 12 12  21 45 03.618   -07 41 45.96  .51934 1.4690 144.1 22.1 1351 140
2020 07 12 13  21 45 04.645   -07 41 24.81  .51922 1.4690 144.1 22.1 1361 140
2020 07 12 14  21 45 05.668   -07 41 03.69  .51909 1.4690 144.1 22.1 1370 140
2020 07 12 15  21 45 06.687   -07 40 42.59  .51897 1.4690 144.2 22.1 1380 140